Location: Madingley
(52.2167°N, 0.0500°E)
Time: 21:17:31
(UTC+00:00)

Cosmos 1825 Rocket - Pass Details

Date: 15 May 2026
Orbit: 598 x 622 km, 82.5° (Epoch: 10 June)

Event Time Altitude Azimuth Distance (km) Brightness Sun altitude
Rises 22:04:29 0° 345° (NNW) 2,874 8.7 -14.7°
Reaches altitude 10° 22:06:45 10° 341° (NNW) 1,969 7.5 -14.9°
Maximum altitude 22:10:58 51° 265° (W) 772 4.1 -15.1°
Enters shadow 22:13:54 19° 196° (SSW) 1,479 5.1 -15.3°
